Location: Unspecified
(0.0000°N, 0.0000°E)
Time: 17:16:22
(UTC+02:00)

Milstar 3 - Visible Passes

Search period start: 29 September 2016 00:00
Search period end: 09 October 2016 00:00
Orbit: 1095 x 5150 km, 28.2° (Epoch: 23 September)

Date Brightness Start Highest point End Pass type
(mag) Time Alt. Az. Time Alt. Az. Time Alt. Az.
29 Sep 5.8 00:02:26 10° NW 00:53:04 11° ESE 00:53:49 10° ESE visible
29 Sep 6.0 03:26:36 60° SSE 03:26:36 60° SSE 03:49:14 10° SE visible
29 Sep 6.3 06:00:08 25° WSW 06:17:02 38° SSW 06:38:03 10° SE visible
29 Sep 5.7 20:18:33 10° NNW 20:25:13 16° NNE 20:34:31 10° NE visible
29 Sep 5.5 23:00:42 10° NW 23:11:52 42° N 23:11:52 42° N visible
30 Sep 6.4 02:28:19 42° SE 02:28:19 42° SE 02:44:04 10° ESE visible
30 Sep 6.1 05:01:51 43° SW 05:09:16 47° SSW 05:34:44 10° SE visible
30 Sep 5.5 21:59:26 10° NNW 22:12:05 33° NNE 22:13:45 33° NE visible
01 Oct 6.1 00:42:57 10° NW 01:29:58 23° ESE 01:37:42 10° ESE visible
01 Oct 6.0 04:03:30 56° SSW 04:03:30 56° SSW 04:30:49 10° SE visible
01 Oct 6.4 06:37:01 12° WSW 07:02:00 31° SSW 07:19:49 10° SE visible
01 Oct 5.6 20:58:36 10° NNW 21:07:54 23° NNE 21:15:39 18° ENE visible
01 Oct 5.6 23:40:50 10° NW 00:31:35 - ESE 23:49:12 40° NNW visible
02 Oct 6.1 03:05:06 52° SSE 03:05:06 52° SSE 03:26:07 10° SE visible
02 Oct 6.3 05:38:36 27° WSW 05:54:06 37° SSW 06:16:24 10° SE visible
02 Oct 5.6 19:58:15 10° NNW 20:04:00 15° NNE 20:11:44 10° NE visible
02 Oct 5.3 22:39:21 10° NW 22:51:10 46° NNE 22:51:10 46° NNE visible
03 Oct 6.5 01:23:54 10° WNW 02:06:39 36° SE 02:20:30 10° SE visible
03 Oct 6.2 04:40:09 43° SW 04:45:48 45° SSW 05:12:31 10° SE visible
03 Oct 6.4 07:23:21 10° WSW 07:47:14 29° S 08:02:16 10° SE visible
03 Oct 5.3 21:38:20 10° NNW 21:49:57 34° NNE 21:53:11 33° NE visible
04 Oct 5.9 00:21:16 10° NW 01:08:09 19° ESE 01:13:47 10° ESE visible
04 Oct 6.1 03:41:39 52° S 03:41:39 52° S 04:08:01 10° SE visible
04 Oct 6.5 06:15:09 13° WSW 06:39:39 32° S 06:58:42 10° SE visible
04 Oct 5.4 20:37:46 10° NNW 20:46:19 23° NNE 20:55:15 15° ENE visible
04 Oct 5.3 23:19:23 10° NW 00:09:37 - ESE 23:28:49 49° NNW visible
05 Oct 6.3 02:43:06 46° SSE 02:43:06 46° SSE 03:02:46 10° SE visible
05 Oct 6.4 05:16:36 28° SW 05:31:11 37° SSW 05:54:41 10° SE visible
05 Oct 5.1 22:18:04 10° NW 22:30:56 50° NNE 22:30:56 50° NNE visible
06 Oct 6.3 01:02:13 10° WNW 01:44:30 31° SE 01:56:40 10° SE visible
06 Oct 6.2 04:18:00 42° SW 04:22:25 43° SSW 04:50:09 10° SE visible
06 Oct 6.5 06:59:41 10° WSW 07:25:17 31° S 07:41:37 10° ESE visible
06 Oct 5.1 21:17:15 10° NNW 21:27:55 35° NNE 21:33:07 31° ENE visible
06 Oct 5.6 23:59:47 10° WNW 00:45:53 16° ESE 00:49:38 10° ESE visible
07 Oct 6.2 03:19:22 48° S 03:19:22 48° S 03:45:01 10° SE visible
07 Oct 6.5 05:52:51 14° WSW 06:17:14 33° S 06:37:33 10° SE visible
07 Oct 5.2 20:16:52 10° NNW 20:24:45 23° NNE 20:35:22 12° ENE visible
07 Oct 5.0 22:58:03 10° NW 23:47:13 - ESE 23:08:56 61° NNW visible
08 Oct 6.4 02:20:41 41° SSE 02:20:41 41° SSE 02:39:10 10° SE visible
08 Oct 6.5 04:54:10 28° SW 05:08:18 36° SSW 05:32:54 10° SE visible
08 Oct 4.9 21:56:53 10° NW 22:09:04 53° NE 22:11:15 51° NE visible
